SVMC/MAR METAR and TAF weather

Enter ICAO airport designator
Station Type Date Time Source
SVMC METAR 2021/07/04 21:03 UTC NOAA

SVMC 042103Z AUTO 00000KT NCD 34/// Q////


Station Type Date Time Source
SVMC Decoded METAR 2021/07/04 21:03 UTC NOAA

Maracaibo-La Chinita, Venezuela (SVMC) 10-34N 071-44W 65M
Jul 04, 2021 - 05:03 PM EDT / 2021.07.04 2103 UTC
Wind: Calm:0
Temperature: 93 F (34 C)
ob: SVMC 042103Z AUTO 00000KT NCD 34/// Q////
cycle: 21

Station Type Date Time Source
SVMC TAF 2022/01/26 12:03 UTC NOAA

TAF SVMC 261000Z 2612/2712 22005KT 9999 FEW013 TX32/2619Z TN22/2608Z
BECMG 2416/2622 06003KT SCT013 SCT060
FM262300 09007KT 9999 SCT013

Example: see airport list